Location: Aydie
(43.5695°N, 0.1043°W)
Time: 13:37:59
(UTC+00:00)

Cosmos 2369 Rocket - Pass Details

Date: 17 November 2025
Orbit: 826 x 852 km, 71.0° (Epoch: 06 December)

Event Time Altitude Azimuth Distance (km) Brightness Sun altitude
Rises 18:00:31 0° 154° (SSE) 3,355 5.2 -15.7°
Reaches altitude 10° 18:03:56 10° 133° (SE) 2,431 4.3 -16.3°
Enters shadow 18:04:22 11° 128° (SE) 2,343 4.1 -16.4°
